Find Starlink 5603

NORAD ID: 55762 Int'l Des: 2023-028 Owner: SPXS Country: US Constellation: starlink operational
LEOCIRCULAR

リアルタイム位置

3D地球を読み込み中...

Starlink 5603について

説明を読み込み中...

次回通過

Passes for default location (London). Set your location on the main map for personalized predictions.

高度履歴

Loading altitude history...

軌道要素

1 55762U 23028X 26133.20120073 .00000080 00000-0 14532-4 0 9997
2 55762 70.0004 61.9106 0003195 265.2167 94.8627 14.98329354176196
Epoch: May 13, 2026 • Age: 8 hours

現在のステータス

高度 575.0 km
速度 7.57 km/s
衛星直下点 -2.60°S, 3.58°W
打ち上げ日 Mar 3, 2023
運用期間 3.1 years
タイプ internet

技術仕様

分類 Payload
質量 305.00 kg
乾燥質量 290.00 kg
総質量 305.00 kg
長さ 0.20 m
直径 2.80 m
スパン 9.00 m
形状 Box + pan
製造者 SPXS
バスタイプ Starlink
フェーズステータス In Orbit
所有者/国 SPXS/US

Most Searched